Regional Weather Roundup
Issued by NWS Jackson, KY

Home | Current Version | Previous Version | Graphics & Text | Print | Product List | Glossary On
Versions: 1 2 3 4 5 6 7 8 9 10 11 12 13 14 15 16 17 18 19 20 21 22 23 24 25 26 27 28 29 30 31 32 33 34 35 36 37 38 39 40 41 42 43 44 45 46 47 48 49
000
ASUS43 KJKL 040110
RWRJKL

EAST KENTUCKY HOURLY WEATHER ROUNDUP
NATIONAL WEATHER SERVICE JACKSON KY
800 PM EST TUE MAR 03 2015

NOTE: "FAIR" INDICATES FEW OR NO CLOUDS BELOW 12,000 FEET WITH
NO SIGNIFICANT WEATHER AND/OR OBSTRUCTIONS TO VISIBILITY.

* THESE REPORTS ARE NOT UNDER NWS QUALITY CONTROL AND MAY NOT
  REPORT WEATHER SUCH AS PRECIPITATION AND FOG.

KYZ079-080-083-085-087-088-110-112-115-119-120-040200
...EASTERN KENTUCKY...

CITY           SKY/WX    TMP DP  RH WIND       PRES   REMARKS
JACKSON        LGT RAIN  59  54  83 VRB7      29.88R
LONDON         CLOUDY    60  53  77 S10G20    29.92S
SOMERSET*      CLOUDY    55  55 100 S7        29.92S
MONTICELLO*    CLOUDY    63  58  83 SW15      29.95S
MIDDLESBORO*   FOG       40  40 100 CALM      30.00R VSB 1/2
PIKEVILLE APT* CLOUDY    61  55  82 S12G21    29.89F
BIG SANDY*     CLOUDY    63  56  78 SW16      29.87R
MOREHEAD APT*  CLOUDY    61  55  82 SW22G31   29.85S
$$

KYZ035-036-041-042-044-050-067-078-099-040200
...CENTRAL KENTUCKY...

CITY           SKY/WX    TMP DP  RH WIND       PRES   REMARKS
MT STERLING*   CLOUDY    59  55  88 SW15G23   29.85F
FLEMING/MASON* CLOUDY    57  54  88 SW18G24   29.81S
DANVILLE*      DRIZZLE   59  55  88 SW13      29.87S
RICHMOND*      CLOUDY    61  55  82 SW12G20   29.87R
LEXINGTON      CLOUDY    60  56  86 SW16      29.83S
FRANKFORT      LGT RAIN  60  56  86 SW15      29.81R FOG
$$

KYZ091>093-OHZ055-061-077-WVZ005-015-034-035-042-040200
...SOUTHERN OHIO/WEST VIRGINIA...

CITY           SKY/WX    TMP DP  RH WIND       PRES   REMARKS
COVINGTON      LGT RAIN  48  46  93 W16G23    29.82R
COLUMBUS       LGT RAIN  41  39  93 SW7       29.76S FOG
DAYTON         CLOUDY    41  40  96 W16       29.80R
WILMINGTON     LGT RAIN  44  43  96 W15       29.79R
HUNTINGTON     CLOUDY    60  54  80 S10       29.82R
CHARLESTON     MOCLDY    60  52  74 SW10      29.83R
PINEVILLE*     CLOUDY    43  43 100 MISG      29.99R
BECKLEY        CLOUDY    51  48  89 SW16G23   29.94S
BLUEFIELD      CLOUDY    55  47  74 SW9       29.98S
$$

VAZ002-007-008-TNZ017-027-036-066-071-040200
...SOUTHWEST VIRGINIA/EAST TENNESSEE...

CITY           SKY/WX    TMP DP  RH WIND       PRES   REMARKS
WISE*          FOG       46  46 100 SW9       30.00S VSB<1/4
JONESVILLE*    LGT RAIN  37  37 100 CALM      30.05S VSB 1/4
ABINGDON*      LGT RAIN  44  42  94 CALM      30.03R
BRISTOL        LGT RAIN  46  45  96 CALM      30.03S
KNOXVILLE      LGT RAIN  48  47  96 CALM      30.03R FOG
OAK RIDGE      LGT RAIN  50  49  96 CALM      30.03F FOG
CROSSVILLE     CLOUDY    54  52  93 S8        29.99F
NASHVILLE      HVY RAIN  61  59  93 S13       29.93S FOG
$$

...KEY TO REMARKS...
VSB - VISIBILITY IN MILES
WCI - WIND CHILL INDEX
HX  - HEAT INDEX

$$


USA.gov is the U.S. government's official web portal to all federal, state and local government web resources and services.